Mombasa, Kenya

7:40 PM EAT on February 19, 2018 (GMT +0300)
Mombasa

Weather History for HKMO - February, 2013

Change the Weather History Date:

Tuesday, February 12, 2013

  Actual Average Record
Temperature  
Mean Temperature 83 °F -  
Max Temperature 91 °F 93 °F 93 °F (1998)
Min Temperature 75 °F 72 °F 72 °F (2014)
Cooling Degree Days 18    
Growing Degree Days 33 (Base 50)    
Moisture  
Dew Point 72 °F    
Average Humidity 70    
Maximum Humidity 94    
Minimum Humidity 49    
Precipitation  
Precipitation 0.00 in 0.04 in - ()
Sea Level Pressure  
Sea Level Pressure 29.78 in    
Wind  
Wind Speed 6 mph ()    
Max Wind Speed 16 mph    
Max Gust Speed -    
Visibility 8.5 miles    
Events      
Averages and records for this station are not official NWS values.
T = Trace of Precipitation, MM = Missing Value Source: Averaged Metar Reports

Daily Weather History Graph

Daily Weather History Graph

Search for Another Location

Airport or City:

Trip Planner

Search our weather history database for the weather conditions in past years. The results will help you decide how hot, cold, wet, or windy it might be!

Date:

Astronomy

Feb. 12, 2013 Rise Set
Actual Time 6:28 AM EAT 6:43 PM EAT
Civil Twilight 6:07 AM EAT 7:04 PM EAT
Nautical Twilight 5:42 AM EAT 7:29 PM EAT
Astronomical Twilight 5:17 AM EAT 7:54 PM EAT
Moon 8:01 AM EAT (2/12) 8:24 PM EAT (2/12)
Length of Visible Light 12h 57m
Length of Day
12h 14m
Waxing Crescent, 5% of the Moon is Illuminated
Feb 12
Waxing Crescent
Feb 17
First Quarter
Feb 25
Full
Mar 5
Last Quarter
Mar 11
New

Hourly Weather History & Observations

Time (EAT) Temp. Heat Index Dew Point Humidity Pressure Visibility Wind Dir Wind Speed Gust Speed Precip Events Conditions
3:00 AM 77 °F - 73 °F 84% 29.80 in 19 mi Calm Calm - -   Mostly Cloudy
4:00 AM 77.0 °F - 73.4 °F 89% 29.80 in 6.2 mi North 3.5 mph - N/A   Partly Cloudy
4:30 AM 77.0 °F - 73.4 °F 89% 29.80 in 6.2 mi North 3.5 mph - N/A   Partly Cloudy
7:00 AM 75.2 °F - 73.4 °F 94% 29.80 in 6.2 mi Calm Calm - N/A   Partly Cloudy
9:00 AM 83 °F - 72 °F 61% 29.85 in 19 mi Calm Calm - -   Scattered Clouds
9:00 AM 82.4 °F 87.2 °F 71.6 °F 70% 29.83 in 6.2 mi Calm Calm - N/A   Partly Cloudy
10:00 AM 86.0 °F 90.4 °F 69.8 °F 58% 29.83 in 6.2 mi North 4.6 mph - N/A   Scattered Clouds
11:00 AM 89.6 °F 96.2 °F 71.6 °F 55% 29.83 in 6.2 mi East 5.8 mph - N/A   Scattered Clouds
12:00 PM 89.6 °F 96.2 °F 71.6 °F 55% 29.80 in 6.2 mi East 11.5 mph - N/A   Partly Cloudy
1:00 PM 89.6 °F 93.4 °F 68.0 °F 49% 29.77 in 6.2 mi East 13.8 mph - N/A   Partly Cloudy
2:00 PM 87.8 °F 92.6 °F 69.8 °F 55% 29.74 in 6.2 mi ESE 16.1 mph - N/A   Partly Cloudy
3:00 PM 87 °F - 72 °F 52% 29.74 in 19 mi ENE 15.0 mph - -   Scattered Clouds
3:00 PM 87.8 °F 93.8 °F 71.6 °F 58% 29.74 in 6.2 mi ENE 15.0 mph - N/A   Partly Cloudy
4:00 PM 86.0 °F 90.4 °F 69.8 °F 58% 29.71 in 6.2 mi ENE 13.8 mph - N/A   Partly Cloudy
5:00 PM 84.2 °F 89.6 °F 71.6 °F 66% 29.71 in 6.2 mi East 11.5 mph - N/A   Partly Cloudy
6:00 PM 82.4 °F 87.2 °F 71.6 °F 70% 29.71 in 6.2 mi East 13.8 mph - N/A   Partly Cloudy
7:00 PM 80.6 °F 85.4 °F 73.4 °F 79% 29.74 in 6.2 mi East 11.5 mph - N/A   Partly Cloudy
7:30 PM 80.6 °F 85.4 °F 73.4 °F 79% 29.74 in 6.2 mi ENE 9.2 mph - N/A   Partly Cloudy
9:00 PM 80 °F - 73 °F 73% 29.76 in 19 mi East 5.8 mph - -   Scattered Clouds
9:00 PM 80.6 °F 85.4 °F 73.4 °F 79% 29.77 in 6.2 mi East 5.8 mph - N/A   Partly Cloudy
10:00 PM 80.6 °F 85.4 °F 73.4 °F 79% 29.80 in 6.2 mi East 11.5 mph - N/A   Partly Cloudy
11:00 PM 80.6 °F 85.4 °F 73.4 °F 79% 29.80 in 6.2 mi ENE 5.8 mph - N/A   Partly Cloudy